STARLINK-32890, 62896

Orbit data source: Space-Track

STARLINK-32890, 62896 is a payload satellite owned by SpaceX/Seattle (US) in LEO that was launched on Tue, 04 Feb 2025 UTC via an FALCON 9 launch vehicle from the Air Force Eastern Test Range (AFETR). Payload-class satellites include a variety of spacecraft equipped with specific instruments for various scientific and technological missions. These include communications satellites like Starlink; space stations such as the ISS; scientific satellites like the Hubble; Earth observation satellites from companies like Planet Labs, Umbra, and HawkEye 360; GPS; miniature CubeSats for education and research; and military/defense satellites.

Loading next visibility...
Identifier
62896, 2025-024T
Orbit
LEO
Country
Flag of USUS
Related business
Manufacturer
SpaceX/Seattle
Mission
Operational Commercial Communications
Bus & Motor
STARLINK V2M, Unknown motor
Mass
730 kg wet, ~700 kg dry
Launch date (UTC)
2025-02-04 (1 year ago)
Launch vehicle
FALCON 9
Launch site
Air Force Eastern Test Range (AFETR)
Object type
Payload
Rocket body
Debris
Shape & HBR
Box + 2 Pan, 17.7 m
Radar Cross Section
33.884 m², Large (>1 m²)

Expand to show TLE details & history
Last TLE update: 12 hours ago

TLE from 12 hours ago
0 STARLINK-32890
1 62896U 25024T   26129.96941281  .00013730  00000-0  50744-3 0  9991
2 62896  43.0036 338.7916 0002209 265.7740  94.2859 15.27586318 71641
Epoch: 2026-05-09T23:15Z
TLE epoch observation values (Epoch: 2026-05-09T23:15:57.266Z)
Latitude
-0.00005°
Longitude
122.02372°
Altitude
482.92 km
Speed
7.626 km/s
True Right ascension
22h 35m 09s
True Declination
0° 00' 00"
Sunlit
Object was in daylight at epoch
Visualization orbit readout
Latitude
Unknown
Longitude
Unknown
Altitude
Unknown
Speed
Unknown
Apparent Right ascension
Unknown
Apparent Declination
Unknown
Sunlit
N/A
Visualization observer readout
Local Sidereal Time
19:37:37
Azimuth
Unknown
Elevation
Unknown
Doppler factor
Unknown
Orbital elements
Apogee altitude
486.491 km
Perigee altitude
483.459 km
Semi-major axis
6,863.112 km
Eccentricity
0.00022
Inclination
43.0036°
RAAN
338.7916°
Arg. of periapsis
265.774°
True anomaly
94.31114°
Mean anomaly
94.2859°
Eccentric anomaly
94.29852°
Mean motion
3.81735 °/min
Orbital period
94.31 mins
BSTAR
0.00050744
Loading maneuver chart data...
Computing Atmospheric mass density...
Loading historical data...
Loading historical data...
Loading historical data...
Loading historical data...
Loading historical data...
Loading historical data...
Loading historical data...

Documentation

Showing up to 5 results
|